Location: Unspecified
(0.0000°N, 1.0000°E)
Time: 23:06:43
(UTC+01:00)

X-37B - Pass Details

Date: 27 September 2020
Orbit: 382 x 392 km, 45.0° (Epoch: 15 October)

Event Time Altitude Azimuth Distance (km) Brightness Sun altitude
Rises 21:03:08 0° 258° (WSW) 2,260 6.0 -19.1°
Reaches altitude 10° 21:06:33 10° 297° (WNW) 1,400 4.3 -19.9°
Maximum altitude 21:07:25 11° 313° (NW) 1,348 3.9 -20.2°
Drops below altitude 10° 21:08:17 10° 329° (NNW) 1,396 3.7 -20.4°
Enters shadow 21:10:05 - 355° (N) 1,751 3.9 -20.8°
